sat.trackr.live / text

‹ back to catalog

STARLINK-5178

NORAD 54083 · 2022-136AJ

PAYLOAD ACTIVE UNKNOWN

§ Identity

Operator
Country
US
Launch date
2022-10-20
Launch site
AFETR
Launch vehicle
Mass (kg)
RCS (m²)

Purposes: comms

External: N2YO · Heavens-Above · Gunter

§ Orbital elements

Epoch: 2026-05-24T22:26:58.669728Z

Period
95.44 min
Inclination
53.2113°
Eccentricity
0.0002022
Mean motion
15.08834156 rev/d
Perigee alt
538.4 km
Apogee alt
541.2 km
Semi-major
6,917.9 km
B*
7.2767e-6
RAAN
351.9060°
Arg perigee
86.0484°
Mean anomaly
274.0739°
Rev number
19,849

§ Raw data

STARLINK-51781 54083U 22136AJ  26144.93540127 -.00000172  00000+0  72767-5 0  99962 54083  53.2113 351.9060 0002022  86.0484 274.0739 15.08834156198491

JSON: /api/v1/satellites/54083 · /tle

For live sub-satellite position, see the globe view (requires WebGL).

§ Visibility from observer

Set your observer location to see the next 7 days of passes ≥ 10°. The values pass through the URL so the page stays shareable.

No JS? Fill the form by hand. The geolocation button needs JavaScript.